Regional Weather Roundup
Issued by NWS Green Bay, WI

Home | Current Version | Previous Version | Graphics & Text | Print | Product List | Glossary Off
Versions: 1 2 3 4 5 6 7 8 9 10 11 12 13 14 15 16 17 18 19 20 21 22 23 24 25 26 27 28 29 30 31 32 33 34 35 36 37 38 39 40 41 42 43 44 45 46 47 48 49 50

000
ASUS43 KGRB 312300
RWRGRB

NORTH-CENTRAL AND NORTHEAST WISCONSIN REGIONAL WEATHER ROUNDUP
NATIONAL WEATHER SERVICE GREEN BAY WI
600 PM CDT MON AUG 31 2015

WIZ005-009-010>012-018-019-010000-
NORTH CENTRAL WISCONSIN

CITY           SKY/WX    TMP DP  RH WIND       PRES   REMARKS
IRONWOOD       SUNNY     77  64  65 S9        29.87S
MANITOWISH WTR NOT AVBL
ARBOR VITAE    NOT AVBL
EAGLE RIVER    NOT AVBL
LAND O LAKES   NOT AVBL
RHINELANDER    SUNNY     75  65  70 SW12G20   30.00R
PHILLIPS       SUNNY     75  67  77 SW10      29.96F
ANTIGO         NOT AVBL
TOMAHAWK       NOT AVBL
MERRILL        SUNNY     75  68  77 S7        30.00S
$$

WIZ013-073-010000-
NORTHEAST WISCONSIN

CITY           SKY/WX    TMP DP  RH WIND       PRES   REMARKS
IRON MOUNTAIN  SUNNY     81  63  54 SW6       29.94R
MARINETTE      SUNNY     77  66  69 SW9       29.96S
$$

WIZ017-030-035>037-045-010000-
CENTRAL WISCONSIN

CITY           SKY/WX    TMP DP  RH WIND       PRES   REMARKS
MEDFORD        NOT AVBL
WAUSAU         SUNNY     77  67  71 S7        29.98F
MOSINEE        SUNNY     75  70  83 S6        30.01S
MARSHFIELD     SUNNY     79  67  66 S8        29.99S
WISC RAPIDS    SUNNY     80  67  64 S6        30.00S
STEVENS POINT  NOT AVBL
WAUPACA        NOT AVBL
SHAWANO        NOT AVBL
CLINTONVILLE   SUNNY     79  68  69 SW6       29.98S
WAUTOMA        NOT AVBL
$$

WIZ038-039-048-051-010000-
FOX VALLEY

CITY           SKY/WX    TMP DP  RH WIND       PRES   REMARKS
NWS GREEN BAY  SUNNY     77  69  76 S6        29.99S
APPLETON       MOSUNNY   79  66  65 S9        29.99R
OSHKOSH        SUNNY     78  69  73 S6        30.00R
FOND DU LAC    SUNNY     79  69  71 SW6       30.00S
$$

WIZ022-050-052-010000-
EAST CENTRAL WISCONSIN

CITY           SKY/WX    TMP DP  RH WIND       PRES   REMARKS
EPHRAIM        FAIR      72  66  81 S3        29.97S
STURGEON BAY   SUNNY     75  66  73 S5        30.01R
MANITOWOC      NOT AVBL
SHEBOYGAN      SUNNY     75  69  81 S8        30.01R
$$

LMZ563-521-522-541>543-010000-
LAKESHORE

STATION/POSITION TIME  TEMP    WIND        PRES    VSBY  WAVE
                       AIR SEA DIR/SP/G                  HT/PER
                 (UTC) (F)     (DEG/KT/KT) (MB)    (MI)  (FT/S)
SHEBOYGAN LKSHOR 2200   67     180/ 18/ 19 1016.0F
KEWAUNEE LKSHORE 2200   53     170/ 10/ 11 1014.7S
NORTHPORT PIER   2200   71     150/  5/ 11 1014.6F
N MID LAKE BUOY  2150   65 65  200/ 14/ 16 1014.9S         2/ 4
CHAMBERS ISLAND  2200   74     180/  7/ 15 1014.6F
MENOMINEE LKSHOR 2200   73     180/  9/ 11 1013.5F
$$


USA.gov is the U.S. government's official web portal to all federal, state and local government web resources and services.